| time (UTC) | temp F | wind direction | speed knots | gust knots | rain 1hr in | rain 24hr in | rain mn in | humidity % | barometer mb |
| 20260904194804 | 81 | 206 | 6.1 | 8.7 | 0.00 | 0.01 | 0.01 | 79 | 1010.2 |
| 20260904193805 | 82 | 201 | 7.0 | 12.2 | 0.00 | 0.01 | 0.01 | 79 | 1010.3 |
| 20260904193304 | 82 | 197 | 4.3 | 8.7 | 0.00 | 0.01 | 0.01 | 80 | 1010.3 |
| 20260904192804 | 81 | 215 | 6.1 | 8.7 | 0.00 | 0.01 | 0.01 | 80 | 1010.4 |
| 20260904192306 | 81 | 201 | 6.1 | 8.7 | 0.00 | 0.01 | 0.01 | 80 | 1010.4 |
| 20260904191305 | 82 | 201 | 4.3 | 7.8 | 0.00 | 0.01 | 0.01 | 79 | 1010.5 |
| 20260904190805 | 82 | 193 | 4.3 | 8.7 | 0.00 | 0.01 | 0.01 | 78 | 1010.4 |
| 20260904184805 | 83 | 183 | 6.1 | 10.4 | 0.00 | 0.01 | 0.01 | 76 | 1010.5 |
| 20260904184304 | 83 | 192 | 5.2 | 8.7 | 0.00 | 0.01 | 0.01 | 76 | 1010.6 |
| 20260904183805 | 83 | 202 | 2.6 | 6.1 | 0.00 | 0.01 | 0.01 | 78 | 1010.5 |
| 20260904183305 | 82 | 185 | 4.3 | 7.8 | 0.00 | 0.01 | 0.01 | 79 | 1010.6 |
| 20260904181805 | 83 | 184 | 2.6 | 5.2 | 0.00 | 0.01 | 0.01 | 76 | 1010.6 |
| 20260904181305 | 84 | 192 | 2.6 | 6.1 | 0.00 | 0.01 | 0.01 | 76 | 1010.6 |
| 20260904180804 | 83 | 148 | 2.6 | 6.1 | 0.00 | 0.01 | 0.01 | 77 | 1010.5 |
| 20260904180305 | 83 | 178 | 3.5 | 6.1 | 0.00 | 0.01 | 0.01 | 76 | 1010.6 |
| 20260904175306 | 85 | 166 | 2.6 | 5.2 | 0.00 | 0.01 | 0.01 | 73 | 1010.6 |
| 20260904174805 | 85 | 141 | 2.6 | 4.3 | 0.00 | 0.01 | 0.01 | 71 | 1010.6 |
| 20260904174305 | 84 | 107 | 3.5 | 5.2 | 0.00 | 0.01 | 0.01 | 71 | 1010.6 |
| 20260904173805 | 84 | 116 | 2.6 | 5.2 | 0.00 | 0.01 | 0.01 | 71 | 1010.6 |
| 20260904172305 | 85 | 157 | 2.6 | 5.2 | 0.00 | 0.01 | 0.01 | 73 | 1010.6 |
| 20260904171805 | 85 | 119 | 1.7 | 5.2 | 0.00 | 0.01 | 0.01 | 73 | 1010.6 |
| 20260904171304 | 85 | 100 | 3.5 | 6.1 | 0.00 | 0.01 | 0.01 | 72 | 1010.6 |
| 20260904165805 | 86 | 89 | 2.6 | 5.2 | 0.00 | 0.01 | 0.01 | 72 | 1010.4 |
| 20260904165305 | 86 | 85 | 3.5 | 6.1 | 0.00 | 0.01 | 0.01 | 70 | 1010.5 |
| 20260904164305 | 87 | 71 | 4.3 | 7.8 | 0.00 | 0.01 | 0.01 | 64 | 1010.6 |
| 20260904163804 | 87 | 74 | 4.3 | 7.8 | 0.00 | 0.01 | 0.01 | 64 | 1010.5 |
| 20260904162806 | 88 | 49 | 5.2 | 10.4 | 0.00 | 0.01 | 0.01 | 62 | 1010.6 |
| 20260904161804 | 87 | 16 | 5.2 | 13.0 | 0.00 | 0.01 | 0.01 | 61 | 1010.7 |
| 20260904155804 | 86 | 7 | 7.8 | 10.4 | 0.00 | 0.01 | 0.01 | 63 | 1010.8 |
| 20260904155306 | 86 | 20 | 7.8 | 13.0 | 0.00 | 0.01 | 0.01 | 64 | 1010.8 |
| 20260904153305 | 85 | 16 | 10.4 | 14.8 | 0.00 | 0.01 | 0.01 | 68 | 1010.9 |
| 20260904145306 | 84 | 10 | 7.8 | 13.9 | 0.00 | 0.01 | 0.01 | 72 | 1010.8 |
| 20260904143304 | 83 | 5 | 9.6 | 17.4 | 0.00 | 0.01 | 0.01 | 74 | 1010.8 |
| 20260904141805 | 82 | 5 | 8.7 | 13.0 | 0.00 | 0.01 | 0.01 | 76 | 1010.9 |
| 20260904140804 | 82 | 351 | 8.7 | 11.3 | 0.00 | 0.01 | 0.01 | 78 | 1010.9 |
| 20260904140304 | 82 | 350 | 9.6 | 13.0 | 0.00 | 0.01 | 0.01 | 77 | 1010.8 |
| 20260904135805 | 82 | 351 | 11.3 | 14.8 | 0.00 | 0.01 | 0.01 | 77 | 1010.8 |
| 20260904135306 | 82 | 347 | 11.3 | 13.9 | 0.00 | 0.01 | 0.01 | 78 | 1010.8 |
| 20260904132306 | 80 | 346 | 7.8 | 13.0 | 0.00 | 0.01 | 0.01 | 80 | 1010.5 |
| 20260904130804 | 79 | 330 | 8.7 | 13.9 | 0.00 | 0.01 | 0.01 | 81 | 1010.6 |
| 20260904125804 | 79 | 331 | 7.0 | 11.3 | 0.00 | 0.01 | 0.01 | 81 | 1010.6 |
| 20260904124805 | 79 | 326 | 7.8 | 12.2 | 0.00 | 0.01 | 0.01 | 81 | 1010.5 |
| 20260904124304 | 79 | 322 | 7.8 | 11.3 | 0.00 | 0.01 | 0.01 | 82 | 1010.5 |
| 20260904123805 | 79 | 317 | 6.1 | 11.3 | 0.00 | 0.01 | 0.01 | 82 | 1010.5 |
| 20260904123305 | 79 | 321 | 7.8 | 13.9 | 0.00 | 0.01 | 0.01 | 82 | 1010.6 |
| 20260904122804 | 78 | 313 | 6.1 | 14.8 | 0.00 | 0.01 | 0.01 | 83 | 1010.6 |
| 20260904121305 | 78 | 317 | 6.1 | 13.9 | 0.00 | 0.01 | 0.01 | 84 | 1010.6 |
| 20260904120805 | 77 | 297 | 7.0 | 13.9 | 0.00 | 0.01 | 0.01 | 85 | 1010.6 |
| 20260904115306 | 77 | 298 | 5.2 | 10.4 | 0.00 | 0.01 | 0.01 | 86 | 1010.3 |
| 20260904114805 | 77 | 291 | 5.2 | 13.0 | 0.00 | 0.01 | 0.01 | 87 | 1010.4 |
| 20260904114305 | 77 | 283 | 4.3 | 10.4 | 0.00 | 0.01 | 0.01 | 87 | 1010.4 |
| 20260904113805 | 76 | 279 | 2.6 | 10.4 | 0.00 | 0.01 | 0.01 | 87 | 1010.4 |
| 20260904112805 | 76 | 292 | 3.5 | 7.8 | 0.00 | 0.01 | 0.01 | 87 | 1010.2 |
| 20260904112306 | 76 | 276 | 4.3 | 8.7 | 0.00 | 0.01 | 0.01 | 87 | 1010.2 |
| 20260904111305 | 76 | 290 | 4.3 | 11.3 | 0.00 | 0.01 | 0.01 | 87 | 1010.2 |
| 20260904105804 | 76 | 271 | 2.6 | 10.4 | 0.00 | 0.01 | 0.01 | 87 | 1010.0 |
| 20260904105306 | 76 | 271 | 4.3 | 8.7 | 0.00 | 0.01 | 0.01 | 87 | 1010.0 |
| 20260904103304 | 77 | 276 | 4.3 | 10.4 | 0.00 | 0.02 | 0.01 | 87 | 1010.0 |
| 20260904102805 | 77 | 266 | 2.6 | 7.8 | 0.00 | 0.02 | 0.01 | 87 | 1010.0 |
| 20260904100804 | 77 | 262 | 2.6 | 6.1 | 0.00 | 0.06 | 0.01 | 88 | 1009.9 |
| 20260904095306 | 77 | 276 | 4.3 | 8.7 | 0.00 | 0.09 | 0.01 | 88 | 1009.7 |
| 20260904094805 | 77 | 259 | 4.3 | 10.4 | 0.00 | 0.10 | 0.01 | 88 | 1009.7 |
| 20260904091304 | 77 | 263 | 2.6 | 8.7 | 0.00 | 0.12 | 0.01 | 88 | 1009.8 |
| 20260904085805 | 78 | 272 | 2.6 | 7.0 | 0.00 | 0.13 | 0.01 | 88 | 1009.9 |
| 20260904085306 | 78 | 264 | 2.6 | 7.8 | 0.00 | 0.13 | 0.01 | 88 | 1010.0 |
| 20260904084804 | 78 | 275 | 2.6 | 10.4 | 0.00 | 0.13 | 0.01 | 88 | 1009.9 |
| 20260904082804 | 77 | 265 | 3.5 | 7.8 | 0.00 | 0.13 | 0.01 | 87 | 1009.9 |
| 20260904081804 | 78 | 244 | 2.6 | 8.7 | 0.00 | 0.13 | 0.01 | 86 | 1009.8 |
| 20260904075805 | 78 | 257 | 4.3 | 8.7 | 0.00 | 0.14 | 0.01 | 86 | 1009.8 |
| 20260904075306 | 77 | 259 | 4.3 | 10.4 | 0.00 | 0.14 | 0.01 | 87 | 1009.8 |
| 20260904074305 | 77 | 255 | 4.3 | 10.4 | 0.00 | 0.16 | 0.01 | 87 | 1009.7 |
| 20260904071804 | 78 | 236 | 2.6 | 6.1 | 0.00 | 0.30 | 0.01 | 86 | 1009.5 |
| 20260904071305 | 78 | 242 | 2.6 | 6.1 | 0.00 | 0.37 | 0.01 | 86 | 1009.5 |
| 20260904070804 | 78 | 232 | 4.3 | 7.0 | 0.00 | 0.45 | 0.01 | 86 | 1009.5 |
| 20260904065306 | 78 | 245 | 2.6 | 5.2 | 0.01 | 1.09 | 0.01 | 86 | 1009.6 |
| 20260904063804 | 78 | 239 | 1.7 | 6.1 | 0.01 | 1.10 | 0.01 | 86 | 1009.7 |
| 20260904060304 | 78 | 274 | 1.7 | 2.6 | 0.01 | 1.10 | 0.01 | 85 | 1010.4 |
| 20260904054804 | 79 | 264 | 0.9 | 2.6 | 0.00 | 1.09 | 0.00 | 84 | 1010.3 |
| 20260904054304 | 79 | 272 | 1.7 | 5.2 | 0.00 | 1.09 | 0.00 | 83 | 1010.8 |
| 20260904052804 | 79 | 263 | 1.7 | 2.6 | 0.00 | 1.09 | 0.00 | 82 | 1010.8 |
| 20260904052307 | 79 | 264 | 1.7 | 2.6 | 0.00 | 1.09 | 0.00 | 82 | 1010.7 |
| 20260904051804 | 79 | 263 | 1.7 | 2.6 | 0.00 | 1.09 | 0.00 | 82 | 1010.8 |
| 20260904051304 | 79 | 263 | 1.7 | 2.6 | 0.00 | 1.09 | 0.00 | 82 | 1010.8 |
| 20260904050804 | 79 | 267 | 1.7 | 5.2 | 0.00 | 1.09 | 0.00 | 82 | 1010.9 |
| 20260904045306 | 79 | 266 | 1.7 | 5.2 | 0.00 | 1.09 | 0.00 | 82 | 1010.9 |
| 20260904043304 | 79 | 243 | 2.6 | 5.2 | 0.00 | 1.09 | 0.00 | 82 | 1011.0 |
| 20260904042306 | 79 | 245 | 1.7 | 4.3 | 0.00 | 1.09 | 0.00 | 82 | 1011.1 |
| 20260904041804 | 79 | 240 | 1.7 | 2.6 | 0.00 | 1.09 | 0.00 | 82 | 1011.2 |
| 20260904034304 | 79 | 258 | 2.6 | 4.3 | 0.00 | 1.09 | 1.09 | 83 | 1011.8 |
| 20260904033804 | 79 | 255 | 2.6 | 6.1 | 0.00 | 1.09 | 1.09 | 83 | 1011.8 |
| 20260904032306 | 79 | 269 | 3.5 | 8.7 | 0.00 | 1.09 | 1.09 | 83 | 1012.0 |
| 20260904031804 | 80 | 264 | 2.6 | 4.3 | 0.00 | 1.09 | 1.09 | 83 | 1012.0 |
| 20260904031304 | 79 | 266 | 1.7 | 2.6 | 0.00 | 1.09 | 1.09 | 83 | 1011.8 |
| 20260904030804 | 79 | 264 | 1.7 | 5.2 | 0.00 | 1.09 | 1.09 | 83 | 1011.6 |
| 20260904030304 | 79 | 263 | 1.7 | 2.6 | 0.00 | 1.09 | 1.09 | 83 | 1011.6 |
| 20260904025804 | 80 | 279 | 1.7 | 4.3 | 0.00 | 1.09 | 1.09 | 83 | 1011.6 |
| 20260904025306 | 80 | 273 | 1.7 | 5.2 | 0.00 | 1.09 | 1.09 | 83 | 1011.7 |
| 20260904024304 | 80 | 271 | 2.6 | 5.2 | 0.00 | 1.09 | 1.09 | 83 | 1011.8 |
| 20260904023304 | 80 | 255 | 1.7 | 4.3 | 0.00 | 1.09 | 1.09 | 83 | 1012.1 |
| 20260904022305 | 80 | 262 | 1.7 | 2.6 | 0.00 | 1.09 | 1.09 | 83 | 1012.1 |
| 20260904020804 | 80 | 265 | 1.7 | 2.6 | 0.00 | 1.09 | 1.09 | 83 | 1012.4 |
| 20260904014304 | 81 | 266 | 0.9 | 4.3 | 0.00 | 1.09 | 1.09 | 82 | 1012.4 |
| 20260904013804 | 81 | 256 | 1.7 | 4.3 | 0.00 | 1.09 | 1.09 | 82 | 1012.4 |
| 20260904012306 | 81 | 252 | 2.6 | 5.2 | 0.00 | 1.09 | 1.09 | 82 | 1012.3 |
| 20260904010804 | 81 | 243 | 2.6 | 7.8 | 0.00 | 1.09 | 1.09 | 83 | 1012.3 |
| 20260904010304 | 81 | 242 | 2.6 | 5.2 | 0.00 | 1.09 | 1.09 | 83 | 1012.4 |
| 20260904005804 | 81 | 264 | 2.6 | 4.3 | 0.00 | 1.09 | 1.09 | 83 | 1012.4 |
| 20260904004804 | 81 | 257 | 1.7 | 4.3 | 0.00 | 1.09 | 1.09 | 83 | 1012.5 |
| 20260904004305 | 81 | 265 | 1.7 | 4.3 | 0.00 | 1.09 | 1.09 | 83 | 1012.5 |
| 20260904002306 | 82 | 256 | 1.7 | 4.3 | 0.00 | 1.09 | 1.09 | 82 | 1012.2 |
| 20260904000805 | 82 | 255 | 1.7 | 2.6 | 0.00 | 1.09 | 1.09 | 81 | 1012.1 |
| 20260903235805 | 83 | 266 | 1.7 | 4.3 | 0.00 | 1.09 | 1.09 | 80 | 1011.9 |
| 20260903233805 | 83 | 271 | 1.7 | 2.6 | 0.00 | 1.09 | 1.09 | 78 | 1011.7 |
| 20260903233305 | 84 | 268 | 1.7 | 2.6 | 0.00 | 1.09 | 1.09 | 77 | 1011.6 |
| 20260903231805 | 85 | 277 | 0.9 | 2.6 | 0.00 | 1.09 | 1.09 | 76 | 1011.8 |
| 20260903231305 | 85 | 277 | 0.9 | 2.6 | 0.00 | 1.09 | 1.09 | 75 | 1011.6 |
| 20260903225805 | 87 | 271 | 1.7 | 5.2 | 0.00 | 1.09 | 1.09 | 72 | 1011.4 |
| 20260903224804 | 87 | 280 | 0.9 | 2.6 | 0.00 | 1.09 | 1.09 | 73 | 1011.3 |
| 20260903224305 | 87 | 286 | 0.9 | 2.6 | 0.00 | 1.09 | 1.09 | 73 | 1011.3 |
| 20260903222805 | 87 | 270 | 1.7 | 5.2 | 0.00 | 1.09 | 1.09 | 72 | 1011.3 |
| 20260903221304 | 88 | 271 | 2.6 | 5.2 | 0.00 | 1.09 | 1.09 | 71 | 1011.3 |
| 20260903220805 | 88 | 268 | 2.6 | 7.8 | 0.00 | 1.09 | 1.09 | 70 | 1011.3 |
| 20260903220306 | 88 | 265 | 2.6 | 6.1 | 0.00 | 1.09 | 1.09 | 70 | 1011.3 |
| 20260903215804 | 88 | 278 | 4.3 | 7.8 | 0.00 | 1.09 | 1.09 | 68 | 1011.4 |
| 20260903213805 | 89 | 257 | 3.5 | 7.8 | 0.00 | 1.09 | 1.09 | 66 | 1011.0 |
| 20260903213305 | 89 | 250 | 2.6 | 5.2 | 0.00 | 1.09 | 1.09 | 67 | 1011.0 |
| 20260903212805 | 90 | 271 | 3.5 | 8.7 | 0.00 | 1.09 | 1.09 | 67 | 1011.1 |
| 20260903212306 | 89 | 252 | 2.6 | 5.2 | 0.00 | 1.09 | 1.09 | 67 | 1011.1 |
| 20260903211805 | 89 | 256 | 2.6 | 7.8 | 0.00 | 1.09 | 1.09 | 67 | 1011.1 |
| 20260903211305 | 89 | 266 | 2.6 | 5.2 | 0.00 | 1.09 | 1.09 | 68 | 1011.2 |
| 20260903210805 | 89 | 259 | 2.6 | 7.8 | 0.00 | 1.09 | 1.09 | 67 | 1011.1 |
| 20260903205806 | 89 | 260 | 2.6 | 5.2 | 0.00 | 1.09 | 1.09 | 68 | 1011.2 |
| 20260903205306 | 89 | 241 | 2.6 | 6.1 | 0.00 | 1.09 | 1.09 | 69 | 1011.2 |
| 20260903195805 | 90 | 272 | 1.7 | 6.1 | 0.00 | 1.09 | 1.09 | 67 | 1011.7 |